Location: Alladorf
(49.9620°N, 11.3790°E)
Time: 20:06:40
(UTC+00:00)

NOSS 3-4 (A) - Pass Details

Date: 29 November 2020
Orbit: 879 x 1333 km, 63.4° (Epoch: 22 January)

Event Time Altitude Azimuth Distance (km) Brightness Sun altitude
Exits shadow 04:00:53 47° 209° (SSW) 1,194 3.7 -26.2°
Maximum altitude 04:02:44 81° 131° (SE) 941 3.4 -25.9°
Drops below altitude 10° 04:09:07 10° 44° (NE) 2,753 6.3 -24.8°
Sets 04:11:49 0° 44° (NE) 3,769 7.1 -24.4°
